Location: Newark
(54.6833°N, 25.2833°E)
Time: 16:33:08
(UTC+00:00)

Altair - Pass Details

Date: 13 November 2019
Orbit: 1502 x 1682 km, 47.2° (Epoch: 05 December)

Event Time Altitude Azimuth Distance (km) Brightness Sun altitude
Rises 08:39:02 0° 281° (W) 4,676 9.7 15.2°
Reaches altitude 10° 08:42:23 10° 273° (W) 3,711 9.3 15.4°
Maximum altitude 08:50:24 33° 214° (SSW) 2,397 9.2 15.8°
Drops below altitude 10° 08:58:39 10° 155° (SSE) 3,821 11.9 16.1°
Sets 09:02:11 0° 146° (SE) 4,831 11.5 16.2°
